Regional Weather Roundup
Issued by NWS

Home | Current Version | Previous Version | Text Only | Print | Product List | Glossary On
Versions: 1 2 3 4 5 6 7 8 9 10 11 12 13 14 15 16 17 18 19 20 21 22 23 24 25 26 27 28 29 30 31 32 33 34 35 36 37 38 39 40 41 42 43 44 45 46 47 48 49 50
000
ASUS44 KBMX 021310
RWRAL

ALABAMA REGIONAL WEATHER ROUNDUP
NATIONAL WEATHER SERVICE BIRMINGHAM AL
800 AM CDT TUE JUN 02 2015

NOTE: "FAIR" INDICATES FEW OR NO CLOUDS BELOW 12,000 FEET
WITH NO SIGNIFICANT WEATHER AND/OR OBSTRUCTIONS TO VISIBILITY.

THE REMARK "TC" DENOTES TEMPERATURE IN DEGREES CELSIUS.

ALZ001>011-014-016>018-020-021400-
NORTH ALABAMA

CITY           SKY/WX    TMP DP  RH WIND       PRES   REMARKS
MUSCLE SHOALS  PTSUNNY   67  59  75 VRB3      30.09R
HUNTSVILLE     CLOUDY    67  63  87 NW5       30.07R
DECATUR        CLOUDY    65  62  90 N8        30.08R
HALEYVILLE     CLOUDY    63  62  96 CALM      30.11R
GADSDEN        PTSUNNY  N/A N/A N/A CALM      30.05R
$$

ALZ012-013-022-023-030>036-040>044-021400-
WEST CENTRAL ALABAMA

CITY           SKY/WX    TMP DP  RH WIND       PRES   REMARKS
TUSCALOOSA     PTSUNNY   69  64  84 N7        30.06R
$$

ALZ015-024>027-033>036-040>044-021400-
CENTRAL ALABAMA

CITY           SKY/WX    TMP DP  RH WIND       PRES   REMARKS
BIRMINGHAM     PTSUNNY   67  65  93 CALM      30.08R FOG
MONTGOMERY     CLOUDY    71  67  87 W3        30.03R
SHELBY CO ARPT CLOUDY    67  65  93 CALM      30.06R
MAXWELL AFB    CLOUDY    70  69  95 N6        30.02S
GREENVILLE     FOG       68  66  93 CALM      30.02R VSB 1/4
$$

ALZ019-021-028-029-037-038-045>048-021400-
EAST CENTRAL ALABAMA

CITY           SKY/WX    TMP DP  RH WIND       PRES   REMARKS
ANNISTON       FOG       65  64  97 CALM      30.06R VSB 1
ALEXANDER CITY CLOUDY    69  64  83 NW3       30.05R
AUBURN         CLOUDY    66  63  88 NE6       30.06S
$$

ALZ051>064-021400-
SOUTHWEST ALABAMA

CITY           SKY/WX    TMP DP  RH WIND       PRES   REMARKS
MOBILE         CLOUDY    72  71  97 CALM      30.02R FOG
BROOKLEY FIELD PTSUNNY   73  71  93 N5        30.02R FOG
EVERGREEN      CLOUDY    69  68  96 CALM      30.02R FOG
$$

ALZ049-050-065>069-021400-
SOUTHEAST ALABAMA

CITY           SKY/WX    TMP DP  RH WIND       PRES   REMARKS
DOTHAN         PTSUNNY   70  70 100 CALM      30.06R FOG
OZARK          PTSUNNY   70  68  94 NE1       30.01S FOG
TROY           FOG       70  69  97 CALM      30.03S VSB 1
EUFAULA        PTSUNNY   72  68  87 VRB3      30.02S
$$


USA.gov is the U.S. government's official web portal to all federal, state and local government web resources and services.